UNNT

Novosibirsk/Tolmachevo

Airport
ICAO code
UNNT
Summary
ICAO Region
EUR
ICAO Territory
Location

Ob, Siberia,

Coordinates
55° 0' 45" N , 82° 39' 3" E
KCC
Metar
Observation
UNNT 041830Z 32001MPS 5000 BR NSC M22/M24 Q1028 R07/820250 R34/////// NOSIG RMK QFE761/1015
Station
TOLMACHEVO
Date/Time
2023-02-04 18:30:00
Wind direction
320°
Lowest cloud amount
n/a
Temperature
-22°C
Dew point
-24°C
Humidity
83%
QNH
1028 hPa
Weather condition
n/a

Description

Novosibirsk Tolmachevo Airport is situated in the town of Ob, 16 km from the center of Novosibirsk, an industrial and scientific center in Siberia, Russia.

Climatology

Humid Continental climate (Köppen climate classification Dfb) - Variable weather patterns and a large seasonal temperature variance. Summers are often warm and humid with frequent thunderstorms and winters can be very cold with frequent snowfall and persistent snow cover.

Runways

Designator Length Width Surface Rops
16/34 1097 14 paved Yes/Yes
7/25 3600 60 ASP Yes/Yes

Airport map

Aerial View

SKYbrary Partners:

Safety knowledge contributed by: